sat.trackr.live / text

‹ back to catalog

STARLINK-32637

NORAD 62032 · 2024-216A

PAYLOAD ACTIVE UNKNOWN

§ Identity

Operator
Country
US
Launch date
2024-11-21
Launch site
AFETR
Launch vehicle
Mass (kg)
RCS (m²)

Purposes: comms

External: N2YO · Heavens-Above · Gunter

§ Orbital elements

Epoch: 2026-05-25T03:34:32.394720Z

Period
94.27 min
Inclination
43.0008°
Eccentricity
0.0001123
Mean motion
15.27590945 rev/d
Perigee alt
482.2 km
Apogee alt
483.8 km
Semi-major
6,861.2 km
B*
3.2643e-4
RAAN
184.1323°
Arg perigee
272.2565°
Mean anomaly
87.8158°
Rev number
8,557

§ Raw data

STARLINK-326371 62032U 24216A   26145.14898605  .00008734  00000+0  32643-3 0  99992 62032  43.0008 184.1323 0001123 272.2565  87.8158 15.27590945 85577

JSON: /api/v1/satellites/62032 · /tle

For live sub-satellite position, see the globe view (requires WebGL).

§ Visibility from observer

Set your observer location to see the next 7 days of passes ≥ 10°. The values pass through the URL so the page stays shareable.

No JS? Fill the form by hand. The geolocation button needs JavaScript.